FMMT

Details ICAO FMMT (TMM)
Name TOAMASINA
Region Comoros, Mayotte, Réunion and Madagascar
Timezone Indian/Antananarivo (UTC+3.0)
Plans Departing 31
Arriving 42
Stats Elevation 22 ft / 7 m (AMSL)
Location -18.109517° 49.392536°
Runways 1
Magnetic Variation 14.786° W
Sunrise 2018-06-20 03:13:57 UTC / 2018-06-20 06:13:57 Local
Sunset 2018-06-20 14:16:28 UTC / 2018-06-20 17:16:28 Local
Advertisement - Login to hide

Runways

ID Width Length Bearing (true) Bearing (mag) Surface Threshold Offset Overrun Length
01 131 ft / 40 m 7,270 ft / 2,216 m 353.90° 8.69° Asphalt 0 ft / 0 m 100 ft / 30 m
19 131 ft / 40 m 7,270 ft / 2,216 m 173.90° 188.69° Asphalt 0 ft / 0 m 197 ft / 60 m

Approach Navaids

Runway Type Ident Frequency Range Bearing (true) Bearing (mag) Slope Elevation
19 Localiser TO 110.30 MHz 18 nm / 33 km 173.77° 188.55° - 22 ft / 7 m (AMSL)
19 Glidescope TO 110.30 MHz 10 nm / 19 km 173.90° 188.68° 3.00° 22 ft / 7 m (AMSL)

Map

Weather


0- 5 10 15 20 25 30 35+ Temperature / ° C

Clouds and Precipitation
Forecast for 2018-06-20 06:00 UTC. Updated 6 hours ago

Ground ~20,000 ft ~40,000 ft Winds

METAR

FMMT 200900Z 13007KT 090V160 9999 SCT017 27/21 Q1020 NOSIG

TAF

Not found

Frequencies

Tower 118.30 MHz TWR
Warning: Do not use this data for real-world aviation or navigation. No guarantee of current accuracy is given.